Flag for U.S.A. Weather past 2 weeks in Springfield, Missouri, U.S.A.

Now
61 °F

Clear.


Feels Like: 61 °F
Forecast: 60 / 69 °F
Wind: 10 mph from Southeast

Location: Springfield Regional Airport

Current Time: Apr 18, 2015 at 7:50:55 AM

Latest Report: Apr 18, 2015 at 6:52 AM


Visibility: 10 mi

Pressure: 29.91 "Hg

Humidity: 87%

Dew point: 57 °F

Location of SpringfieldLocation

Historic Weather in Springfield — Graph

°F

Springfield temperature yesterday

Maximum temperature yesterday: 76 °F (at 4:52 PM)
Minimum temperature yesterday: 58 °F (at 4:52 AM)
Average temperature yesterday: 67 °F

Past Weeks' High & Low Weather Summary

 TemperatureHumidityPressure
High81 °F (Apr 7, 3:52 PM)97% (Apr 6, 9:52 AM)30.43 "Hg (Apr 6, 9:52 AM)
Low29 °F (Apr 4, 6:52 AM)21% (Apr 4, 1:52 PM)29.66 "Hg (Apr 9, 3:52 PM)
Average60 °F66%30.01 "Hg
* Reported Apr 3 6:00 AM — Apr 18 6:52 AM, Springfield, Weather by CustomWeather, © 2015

Note: Actual official high and low records may vary slightly from our data, if they occured in-between our weather recording intervals... More about our weather records

Advertising

Springfield weather history for previous 24 hours

 ConditionsComfort  
Time TempWeatherWind HumidityBarometerVisibility
6:52 AM
Sat, Apr 18
61 °FClear.10 mph87%29.91 "Hg10 mi
5:52 AM62 °FClear.9 mph83%29.90 "Hg10 mi
4:52 AM62 °FPassing clouds.9 mph86%29.93 "Hg10 mi
3:52 AM62 °FPassing clouds.8 mph90%29.94 "Hg10 mi
2:52 AM63 °FClear.10 mph90%29.94 "Hg10 mi
1:52 AM64 °FPassing clouds.10 mph84%29.95 "Hg10 mi
12:52 AM65 °FPassing clouds.9 mph81%29.96 "Hg10 mi
11:52 PM
Fri, Apr 17
64 °FClear.7 mph81%29.96 "Hg10 mi
10:52 PM67 °FPassing clouds.7 mph76%29.97 "Hg10 mi
9:52 PM67 °FPassing clouds.6 mph73%29.97 "Hg10 mi
8:52 PM68 °FClear.7 mph68%29.95 "Hg10 mi
7:52 PM69 °FSunny.6 mph63%29.93 "Hg10 mi
6:52 PM74 °FSunny.7 mph56%29.95 "Hg10 mi
5:52 PM76 °FSunny.9 mph56%29.94 "Hg10 mi
4:52 PM76 °FSunny.8 mph48%29.94 "Hg10 mi
3:52 PM75 °FScattered clouds.9 mph58%29.95 "Hg10 mi
2:52 PM74 °FScattered clouds.6 mph56%29.97 "Hg10 mi
1:52 PM73 °FPartly sunny.3 mph59%30.01 "Hg10 mi
12:52 PM71 °FPassing clouds.No wind61%30.04 "Hg10 mi
11:52 AM71 °FSunny.8 mph61%30.05 "Hg10 mi
10:52 AM69 °FSunny.7 mph68%30.05 "Hg10 mi
9:52 AM67 °FSunny.12 mph68%30.05 "Hg10 mi
8:52 AM64 °FSunny.7 mph75%30.03 "Hg10 mi
7:52 AM61 °FSunny.8 mph83%30.03 "Hg10 mi
Weather by CustomWeather, © 2015

See weather overviewHow to use our weather pages